AFR328K LFPG-CYOW

Flight info

Callsign AFR328K
Flight time N/A
Altitude 30000
Route ATREX DCT VESAN DCT RATUK DCT SOVAT/N0462F360 L613 SANDY L722 ICTAM/N0466F380 T421 DIDZA DCT CESQA DCT BIBPE DCT OKTAD DCT ABWIV DCT MEDOG DCT VATRY DCT RESNO/M082F390 NATA TUDEP/N0468F400 DCT TAFFY DCT DERDO DCT DAXUG DCT MUTIB DCT PUPOV DCT VILRO RIVER4
Aircraft B772/H-SDE2E3FGHIJ5LORVWXY/LB1D1

Departure

Time N/A
Airport Charles de Gaulle International Airport (LFPG)

Arrival

Time 2026-04-29 21:27
Airport Ottawa Macdonald-Cartier International Airport (CYOW)
Time Latitude Longitude Altitude Speed Heading
2026-04-29 18:14 53.38374 -43.67122 39313 ft 461 kts 257°
2026-04-29 18:15 53.36466 -43.77361 39301 ft 461 kts 257°
2026-04-29 18:15 53.34550 -43.87590 39316 ft 460 kts 257°
2026-04-29 18:16 53.32626 -43.97809 39315 ft 460 kts 257°
2026-04-29 18:16 53.30692 -44.08019 39316 ft 461 kts 257°
2026-04-29 18:17 53.28750 -44.18224 39314 ft 461 kts 257°
2026-04-29 18:17 53.26797 -44.28425 39314 ft 461 kts 257°
2026-04-29 18:18 53.24837 -44.38610 39315 ft 461 kts 257°
2026-04-29 18:18 53.22866 -44.48799 39316 ft 461 kts 257°
2026-04-29 18:19 53.20887 -44.58971 39315 ft 461 kts 257°
2026-04-29 18:19 53.18915 -44.69056 39318 ft 461 kts 257°
2026-04-29 18:20 53.16921 -44.79200 39306 ft 460 kts 257°
2026-04-29 18:20 53.14919 -44.89336 39314 ft 460 kts 256°
2026-04-29 18:21 53.12910 -44.99450 39315 ft 460 kts 256°
2026-04-29 18:21 53.10889 -45.09572 39315 ft 461 kts 256°
2026-04-29 18:22 53.08861 -45.19679 39316 ft 461 kts 256°
2026-04-29 18:22 53.06820 -45.29798 39306 ft 461 kts 256°
2026-04-29 18:23 53.04771 -45.39901 39317 ft 462 kts 256°
2026-04-29 18:23 53.02709 -45.50018 39313 ft 462 kts 256°
2026-04-29 18:24 53.00637 -45.60135 39313 ft 463 kts 256°
2026-04-29 18:24 52.98554 -45.70248 39317 ft 463 kts 256°
2026-04-29 18:25 52.96462 -45.80358 39315 ft 463 kts 256°
2026-04-29 18:25 52.94362 -45.90451 39314 ft 463 kts 256°
2026-04-29 18:26 52.92256 -46.00525 39306 ft 462 kts 255°
2026-04-29 18:26 52.90145 -46.10573 39312 ft 462 kts 255°
2026-04-29 18:27 52.88029 -46.20597 39312 ft 461 kts 255°
2026-04-29 18:27 52.85903 -46.30612 39306 ft 461 kts 255°
2026-04-29 18:28 52.83774 -46.40599 39318 ft 461 kts 255°
2026-04-29 18:28 52.81633 -46.50592 39311 ft 461 kts 255°
2026-04-29 18:29 52.79481 -46.60585 39307 ft 462 kts 255°
2026-04-29 18:29 52.77318 -46.70580 39316 ft 462 kts 255°
2026-04-29 18:30 52.75147 -46.80567 39307 ft 462 kts 255°
2026-04-29 18:30 52.72964 -46.90558 39311 ft 463 kts 255°
2026-04-29 18:31 52.70769 -47.00551 39314 ft 464 kts 255°
2026-04-29 18:31 52.68566 -47.10540 39312 ft 464 kts 254°
2026-04-29 18:32 52.66352 -47.20521 39314 ft 464 kts 254°
2026-04-29 18:32 52.63017 -47.35478 39313 ft 464 kts 254°
2026-04-29 18:33 52.60784 -47.45434 39311 ft 464 kts 254°
2026-04-29 18:33 52.58553 -47.55330 39310 ft 465 kts 254°
2026-04-29 18:34 52.56665 -47.63669 39316 ft 465 kts 254°
2026-04-29 18:34 52.54033 -47.75238 39300 ft 465 kts 253°
2026-04-29 18:35 52.51758 -47.85187 39312 ft 465 kts 253°
2026-04-29 18:35 52.49473 -47.95135 39313 ft 466 kts 253°
2026-04-29 18:36 52.47174 -48.05094 39316 ft 467 kts 253°
2026-04-29 18:36 52.44868 -48.15037 39317 ft 467 kts 253°
2026-04-29 18:37 52.42554 -48.24973 39313 ft 466 kts 253°
2026-04-29 18:37 52.40233 -48.34889 39318 ft 467 kts 252°
2026-04-29 18:38 52.37901 -48.44806 39312 ft 467 kts 252°
2026-04-29 18:38 52.35561 -48.54716 39316 ft 467 kts 252°
2026-04-29 18:39 52.33209 -48.64627 39320 ft 467 kts 252°
2026-04-29 18:39 52.30849 -48.74527 39306 ft 467 kts 252°
2026-04-29 18:40 52.28479 -48.84421 39319 ft 468 kts 252°
2026-04-29 18:40 52.26102 -48.94304 39316 ft 468 kts 252°
2026-04-29 18:41 52.21315 -49.14070 39313 ft 468 kts 252°
2026-04-29 18:42 52.18907 -49.23943 39309 ft 469 kts 251°
2026-04-29 18:42 52.16508 -49.33739 39324 ft 469 kts 251°
2026-04-29 18:43 52.14084 -49.43588 39317 ft 469 kts 251°
2026-04-29 18:43 52.11651 -49.53433 39317 ft 469 kts 251°
2026-04-29 18:44 52.09211 -49.63266 39321 ft 469 kts 251°
2026-04-29 18:44 52.06764 -49.73079 39314 ft 469 kts 250°
2026-04-29 18:45 52.04308 -49.82889 39323 ft 469 kts 250°
2026-04-29 18:45 52.01843 -49.92697 39321 ft 469 kts 250°
2026-04-29 18:46 51.99376 -50.02497 39319 ft 469 kts 251°
2026-04-29 18:46 51.96994 -50.12337 39318 ft 469 kts 251°
2026-04-29 18:47 51.94638 -50.22191 39315 ft 469 kts 251°
2026-04-29 18:47 51.92265 -50.32034 39319 ft 469 kts 251°
2026-04-29 18:48 51.89876 -50.41859 39321 ft 469 kts 251°
2026-04-29 18:48 51.87474 -50.51676 39316 ft 469 kts 250°
2026-04-29 18:49 51.85067 -50.61469 39315 ft 468 kts 250°
2026-04-29 18:49 51.82654 -50.71247 39316 ft 468 kts 250°
2026-04-29 18:50 51.80238 -50.80994 39315 ft 467 kts 250°
2026-04-29 18:50 51.77814 -50.90732 39317 ft 467 kts 250°
2026-04-29 18:51 51.75383 -51.00454 39316 ft 467 kts 250°
2026-04-29 18:51 51.72946 -51.10160 39301 ft 467 kts 250°
2026-04-29 18:52 51.70500 -51.19855 39310 ft 466 kts 250°
2026-04-29 18:52 51.68048 -51.29532 39315 ft 467 kts 249°
2026-04-29 18:53 51.65586 -51.39210 39325 ft 467 kts 249°
2026-04-29 18:53 51.63113 -51.48885 39315 ft 467 kts 249°
2026-04-29 18:54 51.60635 -51.58547 39308 ft 467 kts 249°
2026-04-29 18:54 51.58164 -51.68125 39322 ft 467 kts 249°
2026-04-29 18:55 51.55671 -51.77759 39320 ft 467 kts 249°
2026-04-29 18:55 51.53172 -51.87372 39305 ft 467 kts 249°
2026-04-29 18:56 51.50663 -51.96985 39302 ft 466 kts 249°
2026-04-29 18:56 51.48149 -52.06580 39309 ft 466 kts 248°
2026-04-29 18:57 51.45626 -52.16159 39309 ft 467 kts 248°
2026-04-29 18:57 51.43091 -52.25748 39313 ft 467 kts 248°
2026-04-29 18:58 51.40551 -52.35318 39310 ft 467 kts 248°
2026-04-29 18:58 51.38432 -52.43271 39310 ft 467 kts 248°
2026-04-29 18:59 51.35875 -52.52834 39309 ft 467 kts 247°
2026-04-29 18:59 51.33309 -52.62385 39309 ft 467 kts 247°
2026-04-29 19:00 51.30734 -52.71930 39303 ft 468 kts 247°
2026-04-29 19:00 51.28154 -52.81458 39303 ft 467 kts 247°
2026-04-29 19:01 51.25565 -52.90981 39302 ft 467 kts 247°
2026-04-29 19:01 51.22967 -53.00496 39308 ft 467 kts 246°
2026-04-29 19:02 51.20363 -53.09996 39308 ft 467 kts 246°
2026-04-29 19:02 51.17752 -53.19487 39309 ft 468 kts 246°
2026-04-29 19:03 51.15481 -53.29201 39380 ft 469 kts 253°
2026-04-29 19:03 51.14535 -53.34167 39586 ft 469 kts 253°
2026-04-29 19:03 51.13594 -53.39145 39793 ft 469 kts 253°
2026-04-29 19:04 51.12653 -53.44113 39970 ft 469 kts 253°
2026-04-29 19:04 51.11705 -53.49074 40198 ft 468 kts 252°
2026-04-29 19:04 51.09780 -53.59022 40299 ft 471 kts 252°
2026-04-29 19:05 51.07840 -53.68934 40294 ft 466 kts 252°
2026-04-29 19:05 51.05913 -53.78722 40299 ft 463 kts 252°
2026-04-29 19:06 51.03986 -53.88455 40300 ft 461 kts 252°
2026-04-29 19:07 51.01084 -54.03029 40303 ft 462 kts 252°
2026-04-29 19:07 50.99136 -54.12751 40304 ft 463 kts 251°
2026-04-29 19:08 50.97172 -54.22508 40302 ft 465 kts 251°
2026-04-29 19:08 50.95192 -54.32292 40299 ft 467 kts 251°
2026-04-29 19:09 50.93197 -54.42103 40295 ft 468 kts 251°
2026-04-29 19:09 50.91189 -54.51929 40294 ft 469 kts 251°
2026-04-29 19:10 50.89169 -54.61762 40293 ft 469 kts 251°
2026-04-29 19:10 50.87155 -54.71520 40293 ft 469 kts 251°
2026-04-29 19:11 50.85120 -54.81330 40292 ft 469 kts 251°
2026-04-29 19:11 50.83079 -54.91123 40290 ft 468 kts 251°
2026-04-29 19:12 50.81034 -55.00887 40291 ft 468 kts 250°
2026-04-29 19:12 50.78981 -55.10641 40300 ft 467 kts 250°
2026-04-29 19:13 50.76924 -55.20367 40291 ft 466 kts 250°
2026-04-29 19:13 50.74860 -55.30081 40290 ft 466 kts 250°
2026-04-29 19:14 50.72793 -55.39758 40291 ft 465 kts 250°
2026-04-29 19:14 50.70718 -55.49429 40297 ft 465 kts 250°
2026-04-29 19:15 50.68637 -55.59088 40300 ft 465 kts 250°
2026-04-29 19:15 50.66548 -55.68731 40299 ft 465 kts 250°
2026-04-29 19:16 50.64450 -55.78373 40304 ft 465 kts 250°
2026-04-29 19:16 50.62345 -55.88002 40305 ft 465 kts 250°
2026-04-29 19:17 50.60231 -55.97630 40311 ft 465 kts 249°
2026-04-29 19:17 50.58106 -56.07258 40306 ft 466 kts 249°
2026-04-29 19:18 50.55975 -56.16872 40307 ft 466 kts 249°
2026-04-29 19:18 50.53836 -56.26475 40307 ft 466 kts 249°
2026-04-29 19:19 50.51686 -56.36082 40301 ft 466 kts 249°
2026-04-29 19:19 50.49530 -56.45676 40294 ft 466 kts 249°
2026-04-29 19:20 50.47383 -56.55189 40292 ft 465 kts 249°
2026-04-29 19:20 50.45211 -56.64765 40292 ft 465 kts 248°
2026-04-29 19:21 50.43032 -56.74328 40291 ft 465 kts 248°
2026-04-29 19:21 50.40846 -56.83879 40291 ft 465 kts 248°
2026-04-29 19:22 50.38654 -56.93414 40287 ft 465 kts 248°
2026-04-29 19:22 50.36456 -57.02931 40287 ft 465 kts 248°
2026-04-29 19:23 50.34253 -57.12430 40300 ft 464 kts 248°
2026-04-29 19:23 50.32040 -57.21927 40297 ft 464 kts 248°
2026-04-29 19:24 50.29823 -57.31398 40299 ft 463 kts 248°
2026-04-29 19:24 50.27603 -57.40847 40312 ft 463 kts 248°
2026-04-29 19:25 50.25374 -57.50288 40308 ft 463 kts 248°
2026-04-29 19:25 50.23135 -57.59731 40312 ft 463 kts 247°
2026-04-29 19:26 50.20889 -57.69159 40299 ft 463 kts 247°
2026-04-29 19:26 50.18638 -57.78571 40303 ft 463 kts 247°
2026-04-29 19:27 50.16380 -57.87974 40305 ft 462 kts 247°
2026-04-29 19:27 50.14118 -57.97347 40305 ft 462 kts 247°
2026-04-29 19:28 50.11847 -58.06721 40291 ft 462 kts 247°
2026-04-29 19:28 50.09572 -58.16072 40292 ft 461 kts 247°
2026-04-29 19:29 50.07291 -58.25407 40301 ft 461 kts 246°
2026-04-29 19:29 50.05003 -58.34733 40289 ft 461 kts 246°
2026-04-29 19:30 50.02709 -58.44043 40305 ft 461 kts 246°
2026-04-29 19:30 50.00408 -58.53341 40290 ft 460 kts 246°
2026-04-29 19:31 49.98104 -58.62612 40286 ft 460 kts 246°
2026-04-29 19:31 49.95792 -58.71879 40288 ft 460 kts 246°
2026-04-29 19:32 49.93477 -58.81118 40293 ft 459 kts 246°
2026-04-29 19:32 49.91153 -58.90352 40300 ft 459 kts 246°
2026-04-29 19:33 49.88827 -58.99559 40283 ft 458 kts 246°
2026-04-29 19:33 49.86494 -59.08758 40295 ft 458 kts 246°
2026-04-29 19:34 49.84173 -59.17872 40284 ft 458 kts 246°
2026-04-29 19:34 49.82210 -59.25548 40276 ft 457 kts 246°
2026-04-29 19:35 49.79484 -59.36169 40279 ft 456 kts 246°
2026-04-29 19:35 49.77134 -59.45285 40281 ft 456 kts 246°
2026-04-29 19:36 49.74779 -59.54382 40274 ft 455 kts 246°
2026-04-29 19:36 49.72418 -59.63468 40276 ft 455 kts 245°
2026-04-29 19:37 49.70053 -59.72531 40274 ft 455 kts 245°
2026-04-29 19:37 49.67682 -59.81584 40278 ft 455 kts 246°
2026-04-29 19:38 49.65303 -59.90630 40279 ft 455 kts 246°
2026-04-29 19:38 49.62918 -59.99657 40272 ft 455 kts 246°
2026-04-29 19:39 49.60524 -60.08693 40269 ft 455 kts 246°
2026-04-29 19:39 49.58124 -60.17714 40264 ft 455 kts 246°
2026-04-29 19:40 49.55719 -60.26719 40264 ft 455 kts 246°
2026-04-29 19:40 49.53305 -60.35720 40264 ft 455 kts 246°
2026-04-29 19:41 49.50885 -60.44708 40262 ft 455 kts 246°
2026-04-29 19:41 49.48457 -60.53692 40261 ft 455 kts 245°
2026-04-29 19:42 49.46022 -60.62668 40268 ft 455 kts 245°
2026-04-29 19:42 49.43576 -60.71649 40262 ft 456 kts 245°
2026-04-29 19:43 49.41135 -60.80579 40257 ft 457 kts 246°
2026-04-29 19:43 49.38667 -60.89571 40253 ft 457 kts 245°
2026-04-29 19:44 49.36190 -60.98564 40252 ft 458 kts 245°
2026-04-29 19:44 49.33702 -61.07560 40245 ft 458 kts 245°
2026-04-29 19:45 49.31206 -61.16553 40241 ft 458 kts 245°
2026-04-29 19:45 49.29109 -61.24078 40240 ft 458 kts 246°
2026-04-29 19:46 49.26601 -61.33053 40243 ft 458 kts 245°
2026-04-29 19:46 49.24087 -61.42011 40237 ft 458 kts 245°
2026-04-29 19:47 49.21567 -61.50958 40233 ft 458 kts 245°
2026-04-29 19:47 49.19043 -61.59886 40234 ft 457 kts 245°
2026-04-29 19:48 49.16516 -61.68796 40222 ft 456 kts 245°
2026-04-29 19:48 49.13992 -61.77651 40223 ft 454 kts 245°
2026-04-29 19:49 49.11470 -61.86470 40230 ft 453 kts 245°
2026-04-29 19:49 49.08947 -61.95266 40230 ft 452 kts 245°
2026-04-29 19:50 49.06423 -62.04032 40234 ft 451 kts 245°
2026-04-29 19:50 49.03895 -62.12777 40234 ft 450 kts 245°
2026-04-29 19:51 49.01362 -62.21510 40229 ft 450 kts 245°
2026-04-29 19:51 48.98827 -62.30216 40228 ft 450 kts 245°
2026-04-29 19:52 48.96283 -62.38922 40226 ft 450 kts 245°
2026-04-29 19:52 48.93751 -62.47559 40225 ft 450 kts 245°
2026-04-29 19:53 48.91196 -62.56242 40225 ft 450 kts 245°
2026-04-29 19:53 48.88633 -62.64920 40223 ft 450 kts 245°
2026-04-29 19:54 48.84778 -62.77914 40221 ft 450 kts 244°
2026-04-29 19:54 48.82202 -62.86557 40212 ft 449 kts 244°
2026-04-29 19:55 48.79622 -62.95187 40211 ft 449 kts 244°
2026-04-29 19:55 48.77042 -63.03785 40208 ft 448 kts 244°
2026-04-29 19:56 48.74458 -63.12367 40203 ft 447 kts 244°
2026-04-29 19:56 48.71873 -63.20922 40204 ft 446 kts 244°
2026-04-29 19:57 48.69705 -63.28072 40204 ft 446 kts 244°
2026-04-29 19:57 48.66689 -63.37989 40196 ft 446 kts 244°
2026-04-29 19:58 48.64091 -63.46496 40208 ft 446 kts 244°
2026-04-29 19:58 48.61488 -63.54993 40199 ft 445 kts 243°
2026-04-29 19:59 48.58883 -63.63467 40190 ft 444 kts 243°
2026-04-29 19:59 48.56276 -63.71918 40187 ft 444 kts 243°
2026-04-29 20:00 48.53665 -63.80353 40181 ft 443 kts 243°
2026-04-29 20:00 48.51053 -63.88761 40183 ft 442 kts 243°
2026-04-29 20:01 48.48437 -63.97158 40178 ft 442 kts 243°
2026-04-29 20:01 48.45818 -64.05532 40174 ft 442 kts 243°
2026-04-29 20:02 48.43195 -64.13895 40181 ft 442 kts 243°
2026-04-29 20:02 48.41010 -64.20838 40192 ft 442 kts 243°
2026-04-29 20:03 48.37946 -64.30541 40187 ft 442 kts 243°
2026-04-29 20:03 48.35304 -64.38878 40186 ft 441 kts 243°
2026-04-29 20:04 48.32661 -64.47194 40168 ft 441 kts 243°
2026-04-29 20:04 48.30013 -64.55494 40174 ft 440 kts 242°
2026-04-29 20:05 48.27357 -64.63793 40178 ft 440 kts 242°
2026-04-29 20:05 48.24701 -64.72067 40156 ft 440 kts 242°
2026-04-29 20:06 48.22039 -64.80330 40153 ft 440 kts 242°
2026-04-29 20:06 48.19375 -64.88574 40165 ft 440 kts 242°
2026-04-29 20:07 48.16697 -64.96833 40148 ft 440 kts 242°
2026-04-29 20:07 48.14014 -65.05080 40135 ft 440 kts 242°
2026-04-29 20:08 48.11782 -65.11922 40141 ft 440 kts 242°
2026-04-29 20:08 48.08635 -65.21536 40139 ft 440 kts 242°
2026-04-29 20:09 48.05953 -65.29701 40146 ft 440 kts 242°
2026-04-29 20:09 48.03251 -65.37902 40143 ft 440 kts 242°
2026-04-29 20:10 48.00538 -65.46110 40144 ft 440 kts 242°
2026-04-29 20:10 47.97823 -65.54296 40145 ft 440 kts 241°
2026-04-29 20:11 47.95102 -65.62476 40130 ft 440 kts 241°
2026-04-29 20:11 47.92373 -65.70651 40128 ft 440 kts 241°
2026-04-29 20:12 47.89637 -65.78825 40103 ft 441 kts 241°
2026-04-29 20:12 47.86896 -65.86986 40104 ft 441 kts 241°
2026-04-29 20:13 47.84593 -65.93820 40104 ft 441 kts 241°
2026-04-29 20:13 47.81393 -66.03291 40120 ft 441 kts 241°
2026-04-29 20:14 47.78630 -66.11438 40113 ft 441 kts 241°
2026-04-29 20:14 47.75860 -66.19583 40127 ft 442 kts 241°
2026-04-29 20:15 47.73076 -66.27740 40101 ft 443 kts 241°
2026-04-29 20:15 47.70287 -66.35888 40091 ft 443 kts 241°
2026-04-29 20:16 47.67490 -66.44036 40091 ft 443 kts 241°
2026-04-29 20:16 47.64688 -66.52172 40091 ft 443 kts 241°
2026-04-29 20:17 47.61880 -66.60300 40076 ft 443 kts 241°
2026-04-29 20:17 47.59082 -66.68374 40077 ft 443 kts 241°
2026-04-29 20:18 47.56265 -66.76476 40073 ft 443 kts 241°
2026-04-29 20:18 47.53441 -66.84574 40097 ft 442 kts 241°
2026-04-29 20:19 47.50609 -66.92671 40082 ft 443 kts 241°
2026-04-29 20:19 47.47769 -67.00764 40079 ft 444 kts 240°
2026-04-29 20:20 47.44921 -67.08857 40085 ft 444 kts 240°
2026-04-29 20:20 47.42066 -67.16947 40069 ft 444 kts 240°
2026-04-29 20:21 47.39209 -67.25020 40081 ft 444 kts 240°
2026-04-29 20:21 47.36199 -67.32967 40082 ft 443 kts 235°
2026-04-29 20:22 47.32752 -67.40491 40080 ft 443 kts 234°
2026-04-29 20:22 47.29291 -67.47998 40079 ft 443 kts 234°
2026-04-29 20:23 47.25832 -67.55524 40081 ft 444 kts 235°
2026-04-29 20:23 47.22375 -67.63052 40079 ft 444 kts 235°
2026-04-29 20:24 47.18916 -67.70573 40077 ft 444 kts 234°
2026-04-29 20:24 47.15476 -67.78032 40077 ft 444 kts 234°
2026-04-29 20:25 47.12005 -67.85538 40078 ft 444 kts 234°
2026-04-29 20:25 47.08529 -67.93032 40080 ft 444 kts 234°
2026-04-29 20:26 47.05047 -68.00518 40069 ft 444 kts 234°
2026-04-29 20:26 47.01564 -68.07988 40081 ft 444 kts 234°
2026-04-29 20:27 46.99230 -68.12982 40079 ft 444 kts 234°
2026-04-29 20:27 46.94582 -68.22900 40059 ft 444 kts 234°
2026-04-29 20:28 46.91082 -68.30346 40051 ft 444 kts 234°
2026-04-29 20:28 46.87580 -68.37775 40055 ft 444 kts 234°
2026-04-29 20:29 46.84074 -68.45192 40053 ft 444 kts 234°
2026-04-29 20:29 46.80563 -68.52602 40033 ft 444 kts 234°
2026-04-29 20:30 46.77047 -68.60001 40034 ft 444 kts 234°
2026-04-29 20:30 46.73527 -68.67390 40035 ft 444 kts 234°
2026-04-29 20:31 46.70026 -68.74718 40033 ft 444 kts 234°
2026-04-29 20:31 46.66498 -68.82086 40019 ft 444 kts 234°
2026-04-29 20:32 46.63532 -68.88262 40018 ft 443 kts 234°
2026-04-29 20:32 46.59998 -68.95606 40019 ft 443 kts 234°
2026-04-29 20:33 46.56460 -69.02937 40021 ft 443 kts 234°
2026-04-29 20:33 46.52933 -69.10227 40008 ft 444 kts 234°
2026-04-29 20:34 46.49380 -69.17551 40004 ft 444 kts 234°
2026-04-29 20:34 46.45825 -69.24861 40010 ft 444 kts 234°
2026-04-29 20:35 46.42262 -69.32168 40011 ft 444 kts 234°
2026-04-29 20:35 46.38692 -69.39470 40010 ft 444 kts 234°
2026-04-29 20:36 46.35122 -69.46754 40012 ft 444 kts 234°
2026-04-29 20:36 46.31544 -69.54033 40006 ft 444 kts 234°
2026-04-29 20:37 46.27965 -69.61297 39998 ft 444 kts 234°
2026-04-29 20:37 46.24379 -69.68557 39989 ft 444 kts 234°
2026-04-29 20:38 46.20787 -69.75808 39981 ft 443 kts 234°
2026-04-29 20:38 46.17192 -69.83047 39978 ft 443 kts 234°
2026-04-29 20:39 46.13600 -69.90264 39967 ft 443 kts 234°
2026-04-29 20:39 46.10008 -69.97461 39973 ft 442 kts 234°
2026-04-29 20:40 46.06409 -70.04652 39973 ft 442 kts 234°
2026-04-29 20:40 46.02810 -70.11826 39964 ft 442 kts 234°
2026-04-29 20:41 45.99209 -70.18987 39964 ft 441 kts 234°
2026-04-29 20:41 45.95608 -70.26128 39981 ft 441 kts 234°
2026-04-29 20:42 45.92002 -70.33261 39969 ft 441 kts 234°
2026-04-29 20:42 45.88389 -70.40391 39951 ft 441 kts 234°
2026-04-29 20:43 45.84773 -70.47509 39951 ft 441 kts 234°
2026-04-29 20:43 45.81158 -70.54607 39954 ft 441 kts 234°
2026-04-29 20:44 45.77558 -70.61659 39955 ft 441 kts 234°
2026-04-29 20:44 45.73934 -70.68743 39942 ft 441 kts 234°
2026-04-29 20:45 45.70356 -70.75867 39940 ft 440 kts 239°
2026-04-29 20:45 45.68016 -70.83922 39953 ft 441 kts 253°
2026-04-29 20:46 45.67096 -70.92590 39935 ft 443 kts 263°
2026-04-29 20:46 45.66607 -71.01370 39943 ft 444 kts 264°
2026-04-29 20:47 45.66080 -71.10175 39930 ft 445 kts 263°
2026-04-29 20:47 45.65510 -71.18985 39938 ft 445 kts 263°
2026-04-29 20:48 45.64924 -71.27791 39932 ft 445 kts 263°
2026-04-29 20:48 45.64333 -71.36606 39930 ft 446 kts 263°
2026-04-29 20:49 45.63734 -71.45431 39921 ft 446 kts 263°
2026-04-29 20:49 45.63119 -71.54257 39919 ft 447 kts 263°
2026-04-29 20:50 45.62499 -71.63073 39925 ft 446 kts 263°
2026-04-29 20:50 45.61873 -71.71888 39921 ft 446 kts 263°
2026-04-29 20:51 45.61243 -71.80687 39927 ft 445 kts 263°
2026-04-29 20:51 45.60605 -71.89478 39924 ft 445 kts 263°
2026-04-29 20:52 45.59963 -71.98255 39926 ft 444 kts 263°
2026-04-29 20:52 45.59316 -72.07023 39927 ft 444 kts 263°
2026-04-29 20:53 45.58662 -72.15796 39939 ft 444 kts 262°
2026-04-29 20:53 45.58004 -72.24557 39938 ft 444 kts 262°
2026-04-29 20:54 45.57336 -72.37715 39932 ft 445 kts 270°
2026-04-29 20:55 45.57590 -72.46536 39940 ft 444 kts 270°
2026-04-29 20:55 45.57841 -72.55348 39936 ft 444 kts 270°
2026-04-29 20:56 45.58067 -72.64163 39941 ft 445 kts 270°
2026-04-29 20:56 45.58277 -72.72985 39932 ft 445 kts 270°
2026-04-29 20:57 45.58478 -72.81802 39912 ft 442 kts 270°
2026-04-29 20:57 45.58576 -72.86172 39686 ft 440 kts 270°
2026-04-29 20:57 45.58672 -72.90535 39384 ft 439 kts 270°
2026-04-29 20:57 45.58765 -72.94881 39104 ft 438 kts 270°
2026-04-29 20:58 45.58857 -72.99225 38881 ft 436 kts 270°
2026-04-29 20:58 45.58946 -73.03521 38439 ft 432 kts 270°
2026-04-29 20:58 45.59034 -73.07789 37915 ft 427 kts 270°
2026-04-29 20:58 45.59118 -73.11942 37461 ft 421 kts 270°
2026-04-29 20:59 45.59200 -73.16096 36999 ft 416 kts 270°
2026-04-29 20:59 45.59279 -73.20203 36552 ft 411 kts 270°
2026-04-29 20:59 45.59356 -73.24261 36119 ft 406 kts 270°
2026-04-29 20:59 45.59431 -73.28264 35700 ft 401 kts 270°
2026-04-29 21:00 45.59503 -73.32226 35250 ft 397 kts 270°
2026-04-29 21:00 45.59573 -73.36143 34829 ft 393 kts 270°
2026-04-29 21:00 45.59641 -73.40020 34419 ft 388 kts 269°
2026-04-29 21:00 45.59707 -73.43847 33990 ft 384 kts 269°
2026-04-29 21:01 45.59771 -73.47647 33503 ft 380 kts 269°
2026-04-29 21:01 45.59834 -73.51400 33043 ft 376 kts 269°
2026-04-29 21:01 45.59894 -73.55099 32614 ft 370 kts 269°
2026-04-29 21:01 45.59952 -73.58747 32187 ft 365 kts 269°
2026-04-29 21:02 45.60009 -73.62352 31767 ft 361 kts 269°
2026-04-29 21:02 45.60063 -73.65912 31349 ft 356 kts 269°
2026-04-29 21:02 45.60116 -73.69426 30949 ft 352 kts 269°
2026-04-29 21:02 45.60167 -73.72895 30545 ft 348 kts 269°
2026-04-29 21:03 45.60216 -73.76335 30141 ft 345 kts 269°
2026-04-29 21:03 45.60264 -73.79743 29689 ft 342 kts 268°
2026-04-29 21:03 45.60310 -73.83120 29226 ft 338 kts 268°
2026-04-29 21:03 45.60355 -73.86457 28817 ft 335 kts 268°
2026-04-29 21:04 45.60399 -73.89770 28396 ft 332 kts 268°
2026-04-29 21:04 45.60442 -73.93048 27981 ft 329 kts 268°
2026-04-29 21:04 45.60483 -73.96310 27571 ft 327 kts 268°
2026-04-29 21:04 45.60522 -73.99546 27165 ft 325 kts 268°
2026-04-29 21:05 45.60561 -74.02771 26769 ft 324 kts 268°
2026-04-29 21:05 45.60599 -74.05984 26377 ft 323 kts 268°
2026-04-29 21:05 45.60636 -74.09184 25978 ft 322 kts 268°
2026-04-29 21:05 45.60671 -74.12380 25590 ft 322 kts 268°
2026-04-29 21:06 45.60706 -74.15571 25204 ft 321 kts 268°
2026-04-29 21:06 45.60740 -74.18761 24841 ft 322 kts 268°
2026-04-29 21:06 45.60774 -74.21961 24447 ft 322 kts 268°
2026-04-29 21:06 45.60807 -74.25164 24059 ft 323 kts 268°
2026-04-29 21:07 45.60837 -74.28379 23677 ft 324 kts 268°
2026-04-29 21:07 45.60867 -74.31601 23257 ft 325 kts 268°
2026-04-29 21:07 45.60887 -74.33744 22966 ft 326 kts 268°
2026-04-29 21:07 45.60927 -74.38074 22394 ft 326 kts 267°
2026-04-29 21:08 45.60957 -74.41308 21997 ft 326 kts 267°
2026-04-29 21:08 45.60984 -74.44544 21588 ft 326 kts 267°
2026-04-29 21:08 45.61010 -74.47775 21192 ft 326 kts 267°
2026-04-29 21:08 45.60978 -74.51009 20787 ft 324 kts 262°
2026-04-29 21:09 45.60654 -74.54182 20382 ft 323 kts 256°
2026-04-29 21:09 45.60217 -74.57286 19980 ft 323 kts 255°
2026-04-29 21:09 45.59759 -74.60430 19571 ft 324 kts 255°
2026-04-29 21:09 45.59312 -74.63578 19165 ft 325 kts 256°
2026-04-29 21:10 45.58875 -74.66747 18750 ft 325 kts 256°
2026-04-29 21:10 45.58448 -74.69920 18330 ft 326 kts 256°
2026-04-29 21:10 45.58025 -74.73108 17861 ft 327 kts 256°
2026-04-29 21:10 45.57604 -74.76301 17402 ft 327 kts 256°
2026-04-29 21:11 45.57185 -74.79492 16966 ft 327 kts 256°
2026-04-29 21:11 45.56767 -74.82669 16569 ft 325 kts 256°
2026-04-29 21:11 45.56350 -74.85829 16221 ft 322 kts 256°
2026-04-29 21:11 45.55934 -74.88963 15798 ft 320 kts 255°
2026-04-29 21:12 45.55262 -74.91937 15380 ft 311 kts 239°
2026-04-29 21:12 45.54117 -74.94500 14990 ft 306 kts 234°
2026-04-29 21:12 45.52949 -74.97036 14602 ft 306 kts 234°
2026-04-29 21:12 45.51793 -74.99580 14212 ft 306 kts 234°
2026-04-29 21:13 45.50636 -75.02140 13811 ft 307 kts 234°
2026-04-29 21:13 45.49481 -75.04703 13376 ft 307 kts 235°
2026-04-29 21:13 45.48329 -75.07267 12967 ft 307 kts 235°
2026-04-29 21:13 45.47176 -75.09832 12541 ft 307 kts 235°
2026-04-29 21:14 45.46028 -75.12388 12147 ft 306 kts 235°
2026-04-29 21:14 45.44885 -75.14934 11749 ft 305 kts 235°
2026-04-29 21:14 45.43745 -75.17470 11366 ft 304 kts 235°
2026-04-29 21:14 45.42607 -75.20000 10966 ft 303 kts 235°
2026-04-29 21:15 45.41471 -75.22524 10585 ft 303 kts 235°
2026-04-29 21:15 45.40335 -75.25045 10224 ft 302 kts 235°
2026-04-29 21:15 45.39223 -75.27516 10082 ft 293 kts 234°
2026-04-29 21:15 45.38134 -75.29931 9860 ft 287 kts 234°
2026-04-29 21:16 45.37065 -75.32297 9651 ft 281 kts 234°
2026-04-29 21:16 45.36029 -75.34588 9553 ft 269 kts 234°
2026-04-29 21:16 45.35034 -75.36787 9390 ft 260 kts 234°
2026-04-29 21:16 45.34070 -75.38916 9190 ft 254 kts 234°
2026-04-29 21:17 45.33116 -75.41028 8816 ft 254 kts 235°
2026-04-29 21:17 45.32184 -75.43108 8514 ft 252 kts 235°
2026-04-29 21:17 45.31249 -75.45201 8220 ft 251 kts 235°
2026-04-29 21:17 45.30617 -75.46614 8031 ft 251 kts 235°
2026-04-29 21:18 45.29682 -75.48703 7729 ft 251 kts 235°
2026-04-29 21:18 45.28744 -75.50795 7418 ft 252 kts 235°
2026-04-29 21:18 45.27804 -75.52892 7113 ft 252 kts 235°
2026-04-29 21:18 45.26865 -75.54996 6820 ft 252 kts 235°
2026-04-29 21:19 45.25924 -75.57089 6524 ft 252 kts 235°
2026-04-29 21:19 45.24981 -75.59183 6218 ft 251 kts 235°
2026-04-29 21:19 45.24040 -75.61270 5920 ft 250 kts 235°
2026-04-29 21:19 45.23119 -75.63318 5612 ft 249 kts 236°
2026-04-29 21:20 45.22171 -75.65420 5250 ft 251 kts 236°
2026-04-29 21:20 45.21240 -75.67485 4896 ft 252 kts 237°
2026-04-29 21:20 45.20298 -75.69574 4622 ft 250 kts 237°
2026-04-29 21:20 45.19364 -75.71645 4358 ft 249 kts 237°
2026-04-29 21:21 45.18435 -75.73706 4101 ft 248 kts 237°
2026-04-29 21:21 45.17505 -75.75762 3870 ft 248 kts 237°
2026-04-29 21:21 45.16575 -75.77817 3619 ft 248 kts 238°
2026-04-29 21:21 45.15754 -75.79929 3340 ft 242 kts 253°
2026-04-29 21:22 45.15682 -75.82277 3148 ft 239 kts 285°
2026-04-29 21:22 45.16484 -75.84265 3085 ft 232 kts 317°
2026-04-29 21:22 45.17784 -75.85529 3035 ft 225 kts 329°
2026-04-29 21:22 45.19148 -75.86583 3036 ft 220 kts 331°
2026-04-29 21:23 45.20571 -75.87299 3043 ft 220 kts 356°
2026-04-29 21:23 45.22044 -75.86813 3059 ft 221 kts 31°
2026-04-29 21:23 45.23107 -75.85278 3087 ft 217 kts 53°
2026-04-29 21:23 45.23941 -75.83513 3036 ft 212 kts 56°
2026-04-29 21:24 45.24695 -75.81787 2968 ft 201 kts 57°
2026-04-29 21:24 45.25417 -75.80132 2599 ft 194 kts 57°
2026-04-29 21:24 45.26112 -75.78556 2334 ft 181 kts 56°
2026-04-29 21:24 45.26763 -75.77122 2123 ft 168 kts 54°
2026-04-29 21:25 45.27399 -75.75803 1896 ft 153 kts 55°
2026-04-29 21:25 45.27930 -75.74567 1662 ft 143 kts 56°
2026-04-29 21:25 45.28469 -75.73402 1460 ft 140 kts 52°
2026-04-29 21:25 45.29003 -75.72250 1311 ft 140 kts 55°
2026-04-29 21:26 45.29532 -75.71078 1079 ft 140 kts 54°
2026-04-29 21:26 45.30066 -75.69937 877 ft 138 kts 56°
2026-04-29 21:26 45.30584 -75.68794 684 ft 138 kts 58°
2026-04-29 21:26 45.31095 -75.67649 510 ft 137 kts 59°
2026-04-29 21:27 45.31609 -75.66509 378 ft 131 kts 58°
2026-04-29 21:27 45.32024 -75.65586 377 ft 86 kts 57°
2026-04-29 21:27 45.32252 -75.65077 378 ft 45 kts 56°
2026-04-29 21:27 45.32410 -75.64721 376 ft 37 kts 58°
2026-04-29 21:28 45.32524 -75.64565 374 ft 19 kts 345°
2026-04-29 21:28 45.32587 -75.64718 375 ft 19 kts 283°
2026-04-29 21:28 45.32564 -75.64893 377 ft 19 kts 237°
2026-04-29 21:28 45.32493 -75.65049 379 ft 19 kts 238°
2026-04-29 21:29 45.32423 -75.65207 378 ft 19 kts 237°
2026-04-29 21:29 45.32351 -75.65363 381 ft 19 kts 238°
2026-04-29 21:29 45.32281 -75.65520 380 ft 19 kts 238°
2026-04-29 21:29 45.32211 -75.65677 381 ft 19 kts 237°
2026-04-29 21:30 45.32140 -75.65833 378 ft 19 kts 237°
2026-04-29 21:30 45.32069 -75.65987 380 ft 19 kts 238°
2026-04-29 21:30 45.31998 -75.66147 380 ft 19 kts 237°
2026-04-29 21:30 45.31930 -75.66298 381 ft 19 kts 237°
2026-04-29 21:31 45.31876 -75.66452 381 ft 15 kts 278°
2026-04-29 21:31 45.31935 -75.66577 381 ft 15 kts 306°
2026-04-29 21:31 45.31998 -75.66699 381 ft 15 kts 306°
2026-04-29 21:31 45.32061 -75.66821 381 ft 15 kts 306°
2026-04-29 21:32 45.32124 -75.66943 381 ft 15 kts 306°
2026-04-29 21:32 45.32152 -75.66997 381 ft 4 kts 309°
2026-04-29 21:32 45.32177 -75.66992 381 ft 4 kts 25°
2026-04-29 21:32 45.32201 -75.66970 381 ft 4 kts 35°
2026-04-29 21:33 45.32217 -75.66954 381 ft 2 kts 36°
2026-04-29 21:33 45.32225 -75.66945 381 ft 1 kts 36°
2026-04-29 21:33 45.32227 -75.66943 381 ft 0 kts 36°